Regional Weather Roundup
Issued by NWS

Home | Current Version | Previous Version | Graphics & Text | Print | Product List | Glossary On
Versions: 1 2 3 4 5 6 7 8 9 10 11 12 13 14 15 16 17 18 19 20 21 22 23 24 25 26 27 28 29 30 31 32 33 34 35 36 37 38 39 40 41 42 43 44 45 46 47 48 49 50
000
ASUS43 KLMK 311302
RWRKY
KENTUCKY REGIONAL WEATHER ROUNDUP
NATIONAL WEATHER SERVICE LOUISVILLE KY
900 AM EDT FRI OCT 31 2014

NOTE "FAIR" INDICATES FEW OR NO CLOUDS BELOW 12,000 FEET
WITH NO SIGNIFICANT WEATHER AND/OR OBSTRUCTIONS TO VISIBILITY.

KYZ001>023-026-027-061>063-070>075-311400-
WESTERN AND SOUTH CENTRAL KENTUCKY

CITY           SKY/WX    TMP DP  RH WIND       PRES   REMARKS
PADUCAH        CLOUDY    51  48  89 NW8       30.07R
HENDERSON      CLOUDY    48  43  81 NW6       30.06R
OWENSBORO      CLOUDY    48  45  90 N5        30.05R
HOPKINSVILLE   CLOUDY    49  49 100 VRB1      30.03R FOG
BOWLING GREEN  LGT RAIN  48  44  86 CALM      30.02S
GLASGOW        LGT RAIN  46  46 100 CALM      30.01R
$$

KYZ024-025-028>034-038-045-046-053-311400-
NORTH CENTRAL KENTUCKY

CITY           SKY/WX    TMP DP  RH WIND       PRES   REMARKS
LOUISVILLE/SDF CLOUDY    47  43  86 SW7       30.01R
LOUISVILLE/LOU CLOUDY    46  43  89 W3        30.01S
FORT KNOX      CLOUDY    45  43  94 W5        30.00R
$$

KYZ035>037-039>044-047>052-055>060-089>105-311400-
NORTHEAST KENTUCKY

CITY           SKY/WX    TMP DP  RH WIND       PRES   REMARKS
LEXINGTON      LGT RAIN  46  42  86 CALM      29.99R FOG
COVINGTON      CLOUDY    44  39  82 W3        29.97S
FRANKFORT      CLOUDY    43  41  93 CALM      29.99S FOG
$$

KYZ054-064>069-076>088-106>120-311400-
SOUTHEAST KENTUCKY

CITY           SKY/WX    TMP DP  RH WIND       PRES   REMARKS
JACKSON        LGT RAIN  39  36  89 CALM      29.98R FOG
LONDON         LGT RAIN  43  39  86 SW3       29.99R
SOMERSET       DRIZZLE   41  41 100 CALM      30.02R
MIDDLESBORO    CLOUDY    38  38 100 CALM      30.00S FOG
MONTICELLO     LGT RAIN  44  43  97 CALM      30.01S FOG
$$




USA.gov is the U.S. government's official web portal to all federal, state and local government web resources and services.